Home > Weather > Trenton > Past weeks

Flag for USA Past Weather in Trenton, New Jersey, USA — Yesterday and Last 2 Weeks

Now
66 °F

Low clouds.


Feels Like: 66 °F
Forecast: 63 / 84 °F
Wind: 3 mph from Northeast

Location: Mercer County Airport

Current Time: Jun 25, 2016 at 4:51:45 AM

Latest Report: Jun 25, 2016 at 3:53 AM


Visibility: 7 mi

Pressure: 30.10 "Hg

Humidity: 87%

Dew Point: 62 °F

Location of TrentonLocation

Past Weather in Trenton — Graph

°F

Trenton Temperature Yesterday

Maximum temperature yesterday: 81 °F (at 11:53 AM)
Minimum temperature yesterday: 67 °F (at 2:53 AM)
Average temperature yesterday: 74 °F

High & Low Weather Summary for the Past Weeks

 TemperatureHumidityPressure
High92 °F (Jun 20, 3:53 PM)97% (Jun 22, 6:53 AM)30.29 "Hg (Jun 22, 6:53 AM)
Low52 °F (Jun 11, 3:53 AM)19% (Jun 12, 11:53 AM)29.62 "Hg (Jun 12, 2:53 PM)
Average73 °F56%29.92 "Hg
* Reported Jun 10 2:53 AM — Jun 25 2:51 AM, Trenton, Weather by CustomWeather, © 2016

Note: Actual official high and low records may vary slightly from our data, if they occured in-between our weather recording intervals... More about our weather records

Advertising

Trenton Weather History for the Previous 24 Hours

Scroll right to see more
 ConditionsComfort  
Time TempWeatherWind HumidityBarometerVisibility
2:51 AM
Sat, Jun 25
65 °FFog.6 mph97%30.09 "Hg3 mi
1:53 AM65 °FPassing clouds.3 mph87%30.09 "Hg8 mi
12:53 AM65 °FClear.3 mph87%30.09 "Hg10 mi
11:53 PM
Fri, Jun 24
67 °FClear.No wind85%30.08 "Hg10 mi
10:53 PM69 °FOvercast.3 mph79%30.08 "Hg10 mi
9:53 PM69 °FPassing clouds.6 mph76%30.07 "Hg10 mi
8:53 PM71 °FPartly sunny.7 mph71%30.05 "Hg10 mi
7:53 PM74 °FSunny.7 mph64%30.04 "Hg10 mi
6:53 PM76 °FPassing clouds.12 mph58%30.03 "Hg10 mi
5:53 PM78 °FScattered clouds.10 mph54%30.02 "Hg10 mi
4:53 PM80 °FPassing clouds.16 mph49%30.01 "Hg10 mi
3:53 PM81 °FPartly sunny.12 mph53%30.01 "Hg10 mi
2:53 PM80 °FOvercast.8 mph56%30.01 "Hg10 mi
1:53 PM80 °FBroken clouds.13 mph58%30.00 "Hg10 mi
12:53 PM81 °FBroken clouds.16 mph54%30.00 "Hg10 mi
11:53 AM81 °FBroken clouds.10 mph54%30.00 "Hg10 mi
10:53 AM80 °FSunny.8 mph54%29.99 "Hg10 mi
9:53 AM77 °FOvercast.8 mph52%29.99 "Hg10 mi
8:53 AM74 °FSunny.10 mph53%29.97 "Hg10 mi
7:53 AM71 °FOvercast.12 mph55%29.95 "Hg10 mi
6:53 AM69 °FOvercast.12 mph68%29.93 "Hg10 mi
5:53 AM67 °FFog.6 mph87%29.91 "Hg5 mi
4:53 AM67 °FFog.5 mph90%29.89 "Hg5 mi
Weather by CustomWeather, © 2016

See weather overviewHow to use our weather pages